This is the latest recevied weather packets stored in our database for station/object W0VI. If no packets are shown the sender has not sent any weather packets the latest 10 day(s).
| Time | Temp. | Humidity | Pressure | Rain* | Wind** | Luminosity | Snow |
|---|---|---|---|---|---|---|---|
| 1777947405 | 7.78° C | 49% | 1005.9 hPa | 0 mm | - | 0 W/m² | - |
| 1777947103 | 7.78° C | 48% | 1006 hPa | 0 mm | - | 0 W/m² | - |
| 1777946798 | 7.78° C | 47% | 1005.8 hPa | 0 mm | - | 0 W/m² | - |
| 1777946494 | 7.78° C | 46% | 1005.7 hPa | 0 mm | - | 0 W/m² | - |
| 1777946192 | 8.33° C | 46% | 1005.6 hPa | 0 mm | - | 0 W/m² | - |
| 1777945888 | 8.33° C | 46% | 1005.6 hPa | 0 mm | - | 0 W/m² | - |
| 1777945585 | 8.33° C | 45% | 1005.7 hPa | 0 mm | - | 0 W/m² | - |
| 1777945282 | 8.33° C | 44% | 1005.6 hPa | 0 mm | - | 0 W/m² | - |
| 1777944980 | 8.33° C | 45% | 1005.5 hPa | 0 mm | - | 0 W/m² | - |
| 1777944676 | 8.33° C | 45% | 1005.5 hPa | 0 mm | - | 0 W/m² | - |
| 1777944374 | 8.33° C | 45% | 1005.4 hPa | 0 mm | - | 0 W/m² | - |
| 1777944065 | 8.89° C | 44% | 1005.2 hPa | 0 mm | - | 2 W/m² | - |
| 1777943761 | 8.89° C | 43% | 1005.2 hPa | 0 mm | - | 5 W/m² | - |
| 1777943459 | 8.89° C | 43% | 1005.1 hPa | 0 mm | - | 8 W/m² | - |
| 1777943159 | 8.89° C | 43% | 1005.1 hPa | 0 mm | - | 14 W/m² | - |
| 1777942856 | 8.89° C | 42% | 1005.1 hPa | 0 mm | - | 16 W/m² | - |
| 1777942552 | 9.44° C | 41% | 1005 hPa | 0 mm | - | 18 W/m² | - |
| 1777942249 | 9.44° C | 42% | 1004.9 hPa | 0 mm | - | 19 W/m² | - |
| 1777941947 | 9.44° C | 41% | 1004.7 hPa | 0 mm | - | 23 W/m² | - |
| 1777941643 | 9.44° C | 42% | 1005 hPa | 0 mm | - | 25 W/m² | - |
| 1777941340 | 9.44° C | 43% | 1004.9 hPa | 0 mm | - | 30 W/m² | - |
| 1777941038 | 9.44° C | 43% | 1004.8 hPa | 0 mm | - | 29 W/m² | - |
| 1777940737 | 9.44° C | 43% | 1004.8 hPa | 0 mm | - | 30 W/m² | - |
| 1777940432 | 10° C | 43% | 1004.4 hPa | 0 mm | - | 35 W/m² | - |
| 1777940128 | 10° C | 43% | 1004.7 hPa | 0 mm | - | 48 W/m² | - |
* Rain latest hour (hover to see other rain measurements)
** Current wind speed in m/s (hover to see current wind gust speed)